QPF
0.03 0.02 0.02 0.04 0.04 0.04 0.03 0.03 0.05 0.05 0.04 0.04 0.03 0.02 0.02 0.02 0.02 0.01 0.02 0.03 0.03 0.04 0.05 0.05 0.05 0.04 0.03 0.04 0.05 0.04 0.04 0.04 0.03 0.02 0.02 0.03 0.03 0.03 0.03 0.03 0.02 0.01 0.01
0.04 0.03 0.02 0.03 0.05 0.06 0.05 0.05 0.06 0.07 0.05 0.05 0.04 0.02 0.02 0.02 0.02 0.01 0.02 0.02 0.02 0.03 0.04 0.06 0.06 0.05 0.05 0.05 0.05 0.06 0.05 0.04 0.04 0.03 0.02 0.01 0.01 0.02 0.02 0.02 0.02 0.01 0.01
0.04 0.04 0.03 0.03 0.03 0.04 0.06 0.07 0.07 0.09 0.07 0.04 0.04 0.03 0.03 0.03 0.02 0.02 0.02 0.02 0.01 0.02 0.03 0.06 0.07 0.06 0.06 0.06 0.07 0.06 0.06 0.05 0.04 0.03 0.02 0.01 0.01 0.02 0.02 0.02 0.02 0.01 0.01
0.02 0.02 0.02 0.02 0.03 0.05 0.06 0.08 0.08 0.10 0.09 0.06 0.04 0.03 0.03 0.04 0.03 0.03 0.03 0.02 0.01 0.01 0.02 0.03 0.04 0.06 0.06 0.07 0.07 0.08 0.07 0.06 0.05 0.04 0.03 0.02 0.02 0.02 0.02 0.02 0.02 0.02 0.01
0.03 0.02 0.02 0.02 0.02 0.04 0.07 0.08 0.07 0.09 0.09 0.07 0.05 0.04 0.04 0.04 0.04 0.04 0.04 0.03 0.02 0.01 0.02 0.02 0.03 0.04 0.05 0.06 0.06 0.07 0.09 0.09 0.05 0.04 0.03 0.02 0.02 0.02 0.02 0.02 0.02 0.02 0.02
0.03 0.02 0.02 0.03 0.03 0.03 0.06 0.08 0.08 0.08 0.07 0.05 0.05 0.04 0.03 0.04 0.05 0.05 0.05 0.04 0.03 0.02 0.02 0.02 0.02 0.02 0.03 0.05 0.06 0.06 0.07 0.10 0.07 0.04 0.03 0.02 0.02 0.02 0.02 0.02 0.03 0.03 0.02
0.01 0.01 0.01 0.02 0.03 0.04 0.05 0.06 0.07 0.07 0.06 0.04 0.04 0.04 0.04 0.04 0.05 0.05 0.05 0.05 0.04 0.04 0.03 0.02 0.01 0.01 0.02 0.02 0.04 0.05 0.06 0.07 0.06 0.05 0.04 0.03 0.03 0.03 0.02 0.02 0.03 0.03 0.03
0.01 0.01 0.01 0.01 0.02 0.03 0.04 0.05 0.06 0.06 0.05 0.05 0.04 0.03 0.03 0.04 0.05 0.05 0.03 0.02 0.03 0.04 0.04 0.03 0.02 0.01 0.01 0.02 0.03 0.05 0.05 0.06 0.05 0.04 0.04 0.04 0.04 0.05 0.04 0.03 0.04 0.04 0.04
0.01 0.01 0.01 0.02 0.03 0.04 0.04 0.04 0.04 0.05 0.05 0.04 0.03 0.03 0.02 0.02 0.03 0.04 0.03 0.02 0.02 0.02 0.03 0.03 0.02 0.02 0.01 0.02 0.03 0.05 0.06 0.05 0.04 0.05 0.05 0.05 0.06 0.05 0.05 0.05 0.04 0.04 0.05
0.01 0.01 0.02 0.02 0.03 0.04 0.04 0.04 0.04 0.05 0.05 0.05 0.04 0.03 0.02 0.01 0.01 0.02 0.03 0.03 0.02 0.02 0.02 0.02 0.02 0.01 0.01 0.01 0.02 0.04 0.05 0.05 0.05 0.06 0.06 0.06 0.05 0.05 0.05 0.05 0.05 0.05 0.05
0.01 0.02 0.03 0.03 0.03 0.04 0.04 0.04 0.04 0.04 0.04 0.04 0.04 0.04 0.04 0.03 0.02 0.02 0.03 0.03 0.03 0.02 0.02 0.02 0.02 0.01 0.01 0.01 0.01 0.02 0.03 0.04 0.04 0.04 0.05 0.06 0.05 0.06 0.06 0.06 0.05 0.05 0.05
0.02 0.02 0.03 0.04 0.04 0.04 0.05 0.06 0.05 0.04 0.04 0.04 0.04 0.04 0.04 0.04 0.04 0.03 0.03 0.03 0.03 0.03 0.02 0.02 0.02 0.01 0.01 0.01 0.01 0.02 0.02 0.01 0.02 0.03 0.04 0.05 0.05 0.05 0.06 0.06 0.05 0.05 0.05
0.03 0.02 0.02 0.02 0.03 0.03 0.04 0.06 0.06 0.05 0.05 0.05 0.05 0.05 0.05 0.04 0.03 0.03 0.04 0.05 0.04 0.03 0.03 0.02 0.02 0.02 0.01 0.01 0.01 0.01 0.01 0.01 0.01 0.02 0.03 0.04 0.05 0.05 0.05 0.05 0.06 0.06 0.06
0.02 0.01 0.01 0.01 0.01 0.02 0.03 0.04 0.05 0.05 0.04 0.04 0.04 0.04 0.05 0.05 0.04 0.04 0.03 0.04 0.04 0.04 0.04 0.02 0.02 0.02 0.01 0.01 0.01 0.02 0.01 0.01 0.01 0.01 0.02 0.03 0.04 0.04 0.04 0.04 0.05 0.05 0.05
0.01 0.01 0.01 0.00 0.01 0.01 0.02 0.02 0.04 0.05 0.04 0.04 0.04 0.03 0.04 0.04 0.04 0.04 0.03 0.03 0.03 0.04 0.03 0.03 0.02 0.02 0.02 0.01 0.01 0.01 0.01 0.02 0.02 0.02 0.02 0.02 0.03 0.04 0.04 0.04 0.04 0.03 0.04
0.03 0.02 0.01 0.01 0.01 0.01 0.01 0.01 0.03 0.04 0.03 0.03 0.03 0.03 0.03 0.03 0.02 0.02 0.02 0.02 0.03 0.03 0.03 0.02 0.02 0.02 0.02 0.01 0.01 0.01 0.01 0.01 0.02 0.04 0.04 0.03 0.03 0.04 0.04 0.04 0.04 0.05 0.05
0.02 0.03 0.02 0.01 0.01 0.01 0.01 0.01 0.02 0.02 0.03 0.02 0.03 0.03 0.03 0.03 0.02 0.02 0.01 0.02 0.02 0.03 0.03 0.03 0.02 0.02 0.02 0.02 0.02 0.01 0.01 0.01 0.01 0.02 0.03 0.04 0.04 0.04 0.04 0.03 0.03 0.04 0.05
0.02 0.02 0.02 0.02 0.02 0.02 0.01 0.01 0.01 0.01 0.01 0.02 0.02 0.02 0.02 0.03 0.03 0.02 0.02 0.01 0.01 0.02 0.02 0.03 0.03 0.03 0.03 0.03 0.03 0.03 0.02 0.02 0.01 0.02 0.03 0.04 0.04 0.04 0.04 0.04 0.03 0.03 0.05
0.02 0.02 0.02 0.02 0.02 0.02 0.02 0.02 0.01 0.01 0.01 0.01 0.01 0.01 0.02 0.03 0.03 0.03 0.03 0.02 0.02 0.01 0.01 0.02 0.02 0.02 0.03 0.03 0.03 0.03 0.03 0.02 0.02 0.03 0.04 0.05 0.04 0.05 0.07 0.05 0.04 0.03 0.04
0.02 0.02 0.02 0.02 0.02 0.02 0.02 0.02 0.02 0.01 0.01 0.01 0.02 0.02 0.01 0.02 0.03 0.03 0.04 0.03 0.02 0.01 0.01 0.01 0.02 0.02 0.02 0.02 0.02 0.03 0.03 0.03 0.03 0.03 0.04 0.05 0.06 0.07 0.09 0.07 0.04 0.04 0.04
0.01 0.01 0.01 0.01 0.02 0.02 0.02 0.02 0.02 0.01 0.01 0.02 0.02 0.02 0.02 0.02 0.02 0.02 0.03 0.03 0.02 0.02 0.02 0.02 0.01 0.01 0.01 0.02 0.02 0.02 0.03 0.04 0.03 0.03 0.04 0.05 0.06 0.07 0.07 0.07 0.06 0.05 0.04
0.01 0.01 0.01 0.01 0.01 0.01 0.02 0.02 0.02 0.01 0.01 0.01 0.01 0.02 0.02 0.02 0.02 0.02 0.02 0.02 0.02 0.02 0.01 0.01 0.01 0.01 0.01 0.01 0.02 0.02 0.02 0.03 0.04 0.04 0.03 0.04 0.06 0.07 0.07 0.06 0.06 0.05 0.04
0.01 0.01 0.01 0.01 0.01 0.01 0.01 0.02 0.02 0.02 0.02 0.01 0.01 0.01 0.01 0.02 0.02 0.01 0.01 0.01 0.01 0.01 0.01 0.01 0.01 0.01 0.01 0.01 0.02 0.02 0.02 0.03 0.04 0.04 0.04 0.05 0.07 0.07 0.07 0.06 0.06 0.05 0.04
0.01 0.01 0.01 0.01 0.01 0.01 0.01 0.01 0.01 0.01 0.02 0.02 0.02 0.02 0.02 0.02 0.01 0.01 0.01 0.01 0.01 0.01 0.01 0.01 0.01 0.01 0.02 0.02 0.02 0.02 0.02 0.03 0.04 0.05 0.05 0.05 0.06 0.07 0.06 0.05 0.05 0.04 0.03
0.02 0.01 0.01 0.01 0.01 0.01 0.01 0.01 0.01 0.01 0.01 0.01 0.01 0.02 0.02 0.02 0.02 0.02 0.02 0.02 0.01 0.01 0.01 0.01 0.01 0.01 0.01 0.02 0.02 0.02 0.03 0.03 0.04 0.04 0.03 0.03 0.04 0.04 0.04 0.03 0.03 0.03 0.02
0.02 0.02 0.01 0.01 0.01 0.01 0.01 0.01 0.01 0.01 0.01 0.01 0.01 0.01 0.01 0.01 0.02 0.02 0.02 0.02 0.02 0.01 0.01 0.01 0.01 0.01 0.01 0.01 0.01 0.01 0.02 0.02 0.02 0.02 0.02 0.02 0.02 0.02 0.02 0.02 0.02 0.01 0.01
MSLP
1018.02 1017.99 1017.90 1017.80 1017.75 1017.79 1017.93 1018.16 1018.47 1018.79 1019.09 1019.33 1019.49 1019.57 1019.60 1019.60 1019.61 1019.64 1019.71 1019.81 1019.93 1020.04 1020.13 1020.20 1020.26 1020.31 1020.39 1020.52 1020.69 1020.92 1021.19 1021.50 1021.83 1022.16 1022.49 1022.81 1023.12 1023.41 1023.68 1023.94 1024.17 1024.38 1024.55
1018.22 1018.13 1017.98 1017.83 1017.74 1017.74 1017.86 1018.08 1018.37 1018.69 1018.98 1019.22 1019.38 1019.47 1019.52 1019.55 1019.59 1019.66 1019.76 1019.89 1020.03 1020.14 1020.23 1020.28 1020.30 1020.32 1020.36 1020.45 1020.59 1020.80 1021.07 1021.39 1021.74 1022.10 1022.46 1022.82 1023.16 1023.48 1023.78 1024.05 1024.29 1024.51 1024.69
1018.34 1018.19 1018.00 1017.83 1017.72 1017.72 1017.84 1018.07 1018.35 1018.66 1018.94 1019.16 1019.32 1019.41 1019.46 1019.51 1019.58 1019.68 1019.81 1019.96 1020.11 1020.23 1020.31 1020.34 1020.34 1020.32 1020.33 1020.37 1020.49 1020.68 1020.94 1021.26 1021.62 1022.00 1022.39 1022.78 1023.15 1023.50 1023.83 1024.12 1024.39 1024.62 1024.82
1018.40 1018.21 1018.01 1017.84 1017.76 1017.78 1017.92 1018.16 1018.45 1018.75 1019.01 1019.20 1019.33 1019.41 1019.45 1019.50 1019.58 1019.70 1019.85 1020.01 1020.17 1020.29 1020.36 1020.38 1020.36 1020.31 1020.29 1020.31 1020.39 1020.56 1020.80 1021.11 1021.47 1021.87 1022.27 1022.68 1023.07 1023.45 1023.80 1024.13 1024.42 1024.68 1024.91
1018.44 1018.23 1018.04 1017.90 1017.86 1017.93 1018.11 1018.37 1018.66 1018.94 1019.17 1019.33 1019.42 1019.47 1019.49 1019.53 1019.60 1019.72 1019.88 1020.05 1020.21 1020.33 1020.40 1020.40 1020.36 1020.30 1020.26 1020.26 1020.32 1020.46 1020.68 1020.96 1021.31 1021.68 1022.08 1022.49 1022.89 1023.28 1023.66 1024.02 1024.35 1024.65 1024.92
1018.50 1018.29 1018.12 1018.03 1018.05 1018.17 1018.39 1018.67 1018.96 1019.21 1019.40 1019.52 1019.57 1019.57 1019.57 1019.59 1019.65 1019.76 1019.92 1020.09 1020.24 1020.36 1020.41 1020.41 1020.37 1020.30 1020.24 1020.23 1020.27 1020.38 1020.56 1020.81 1021.11 1021.45 1021.81 1022.19 1022.58 1022.98 1023.37 1023.76 1024.13 1024.49 1024.81
1018.63 1018.42 1018.28 1018.24 1018.31 1018.48 1018.72 1019.01 1019.28 1019.50 1019.64 1019.71 1019.72 1019.69 1019.66 1019.66 1019.71 1019.82 1019.97 1020.12 1020.27 1020.37 1020.42 1020.42 1020.37 1020.30 1020.24 1020.21 1020.22 1020.30 1020.44 1020.62 1020.86 1021.14 1021.44 1021.78 1022.14 1022.52 1022.92 1023.34 1023.76 1024.17 1024.57
1018.86 1018.65 1018.54 1018.53 1018.63 1018.81 1019.06 1019.33 1019.56 1019.74 1019.83 1019.86 1019.83 1019.78 1019.74 1019.74 1019.79 1019.89 1020.03 1020.18 1020.31 1020.40 1020.43 1020.42 1020.36 1020.29 1020.22 1020.18 1020.17 1020.20 1020.28 1020.40 1020.56 1020.75 1020.97 1021.24 1021.55 1021.91 1022.31 1022.76 1023.23 1023.72 1024.20
1019.21 1019.00 1018.89 1018.88 1018.98 1019.15 1019.36 1019.58 1019.76 1019.88 1019.92 1019.91 1019.87 1019.82 1019.79 1019.80 1019.87 1019.97 1020.11 1020.24 1020.34 1020.41 1020.42 1020.39 1020.33 1020.25 1020.17 1020.11 1020.08 1020.07 1020.08 1020.12 1020.19 1020.28 1020.42 1020.60 1020.85 1021.18 1021.57 1022.05 1022.57 1023.14 1023.71
1019.68 1019.46 1019.33 1019.30 1019.36 1019.47 1019.62 1019.75 1019.85 1019.90 1019.90 1019.86 1019.81 1019.78 1019.78 1019.83 1019.92 1020.04 1020.17 1020.28 1020.36 1020.40 1020.38 1020.33 1020.24 1020.15 1020.07 1019.99 1019.93 1019.88 1019.83 1019.80 1019.77 1019.77 1019.81 1019.91 1020.10 1020.39 1020.78 1021.27 1021.85 1022.49 1023.16
1020.25 1020.01 1019.86 1019.77 1019.76 1019.78 1019.82 1019.85 1019.85 1019.82 1019.77 1019.72 1019.68 1019.68 1019.73 1019.82 1019.95 1020.08 1020.21 1020.30 1020.34 1020.33 1020.28 1020.19 1020.09 1019.98 1019.89 1019.80 1019.72 1019.64 1019.54 1019.44 1019.34 1019.25 1019.21 1019.23 1019.36 1019.61 1019.99 1020.50 1021.12 1021.83 1022.58
1020.91 1020.64 1020.44 1020.29 1020.18 1020.09 1020.01 1019.91 1019.81 1019.70 1019.60 1019.53 1019.51 1019.55 1019.64 1019.77 1019.93 1020.07 1020.19 1020.25 1020.25 1020.20 1020.10 1019.98 1019.86 1019.74 1019.64 1019.56 1019.47 1019.36 1019.24 1019.09 1018.93 1018.78 1018.67 1018.64 1018.72 1018.93 1019.30 1019.82 1020.46 1021.21 1022.03
1021.58 1021.29 1021.04 1020.82 1020.61 1020.41 1020.20 1019.99 1019.78 1019.60 1019.45 1019.37 1019.36 1019.42 1019.54 1019.70 1019.87 1020.01 1020.10 1020.12 1020.08 1019.97 1019.84 1019.69 1019.56 1019.44 1019.35 1019.27 1019.20 1019.10 1018.96 1018.80 1018.60 1018.41 1018.26 1018.18 1018.22 1018.41 1018.76 1019.26 1019.92 1020.69 1021.53
1022.22 1021.92 1021.63 1021.35 1021.06 1020.75 1020.44 1020.12 1019.82 1019.57 1019.38 1019.27 1019.26 1019.33 1019.46 1019.62 1019.77 1019.89 1019.93 1019.91 1019.81 1019.67 1019.50 1019.33 1019.20 1019.10 1019.03 1018.99 1018.94 1018.86 1018.74 1018.58 1018.38 1018.18 1018.00 1017.90 1017.91 1018.07 1018.39 1018.88 1019.52 1020.28 1021.13
1022.76 1022.47 1022.16 1021.84 1021.49 1021.12 1020.72 1020.33 1019.97 1019.65 1019.42 1019.29 1019.25 1019.30 1019.41 1019.53 1019.65 1019.71 1019.70 1019.61 1019.47 1019.28 1019.09 1018.93 1018.81 1018.74 1018.72 1018.72 1018.71 1018.68 1018.60 1018.46 1018.28 1018.08 1017.90 1017.79 1017.78 1017.91 1018.20 1018.66 1019.26 1019.99 1020.81
1023.18 1022.90 1022.60 1022.26 1021.89 1021.48 1021.05 1020.62 1020.21 1019.86 1019.59 1019.42 1019.34 1019.34 1019.39 1019.45 1019.49 1019.48 1019.40 1019.25 1019.06 1018.85 1018.65 1018.50 1018.41 1018.38 1018.41 1018.47 1018.52 1018.54 1018.51 1018.41 1018.26 1018.09 1017.92 1017.81 1017.80 1017.90 1018.16 1018.57 1019.12 1019.80 1020.57
1023.45 1023.19 1022.91 1022.59 1022.22 1021.82 1021.39 1020.95 1020.53 1020.16 1019.86 1019.65 1019.51 1019.44 1019.41 1019.38 1019.32 1019.22 1019.05 1018.85 1018.61 1018.38 1018.19 1018.06 1018.01 1018.04 1018.12 1018.23 1018.34 1018.41 1018.43 1018.38 1018.27 1018.14 1018.00 1017.90 1017.89 1017.98 1018.20 1018.56 1019.06 1019.68 1020.39
1023.59 1023.36 1023.10 1022.81 1022.48 1022.10 1021.70 1021.27 1020.86 1020.49 1020.16 1019.91 1019.71 1019.56 1019.43 1019.29 1019.13 1018.93 1018.69 1018.43 1018.16 1017.92 1017.74 1017.63 1017.62 1017.69 1017.82 1017.97 1018.13 1018.25 1018.31 1018.30 1018.24 1018.15 1018.04 1017.98 1017.97 1018.06 1018.25 1018.57 1019.02 1019.57 1020.21
1023.64 1023.43 1023.20 1022.94 1022.64 1022.31 1021.94 1021.55 1021.16 1020.78 1020.45 1020.15 1019.89 1019.65 1019.43 1019.19 1018.93 1018.65 1018.33 1018.02 1017.72 1017.48 1017.31 1017.22 1017.24 1017.33 1017.48 1017.66 1017.84 1017.98 1018.08 1018.11 1018.09 1018.04 1017.99 1017.96 1017.97 1018.07 1018.26 1018.55 1018.94 1019.44 1020.03
1023.65 1023.45 1023.23 1022.99 1022.72 1022.42 1022.09 1021.72 1021.36 1020.99 1020.64 1020.31 1019.99 1019.69 1019.38 1019.06 1018.72 1018.36 1018.00 1017.65 1017.33 1017.08 1016.91 1016.83 1016.85 1016.94 1017.09 1017.26 1017.44 1017.58 1017.69 1017.75 1017.77 1017.77 1017.77 1017.79 1017.85 1017.97 1018.17 1018.44 1018.81 1019.26 1019.79
1023.66 1023.45 1023.23 1022.99 1022.73 1022.44 1022.12 1021.78 1021.43 1021.06 1020.70 1020.35 1020.00 1019.64 1019.28 1018.90 1018.51 1018.11 1017.71 1017.33 1017.00 1016.74 1016.56 1016.47 1016.46 1016.52 1016.63 1016.77 1016.91 1017.04 1017.14 1017.22 1017.27 1017.33 1017.39 1017.47 1017.58 1017.75 1017.97 1018.24 1018.59 1019.00 1019.49
1023.70 1023.46 1023.21 1022.96 1022.68 1022.38 1022.05 1021.71 1021.35 1020.99 1020.62 1020.26 1019.89 1019.51 1019.12 1018.72 1018.30 1017.88 1017.47 1017.08 1016.74 1016.46 1016.26 1016.12 1016.06 1016.07 1016.11 1016.18 1016.26 1016.35 1016.44 1016.52 1016.61 1016.72 1016.84 1017.00 1017.18 1017.40 1017.65 1017.95 1018.28 1018.67 1019.12
1023.77 1023.49 1023.20 1022.90 1022.58 1022.24 1021.89 1021.53 1021.16 1020.79 1020.42 1020.05 1019.68 1019.30 1018.92 1018.51 1018.10 1017.68 1017.28 1016.89 1016.54 1016.24 1016.00 1015.81 1015.68 1015.60 1015.55 1015.54 1015.55 1015.58 1015.63 1015.72 1015.84 1015.99 1016.18 1016.41 1016.67 1016.95 1017.25 1017.56 1017.90 1018.26 1018.67
1023.84 1023.53 1023.19 1022.83 1022.45 1022.06 1021.66 1021.26 1020.86 1020.48 1020.11 1019.75 1019.40 1019.04 1018.68 1018.30 1017.92 1017.52 1017.13 1016.75 1016.39 1016.06 1015.77 1015.52 1015.31 1015.13 1014.99 1014.88 1014.80 1014.77 1014.79 1014.87 1015.01 1015.20 1015.46 1015.75 1016.08 1016.42 1016.76 1017.10 1017.44 1017.78 1018.15
1023.90 1023.54 1023.15 1022.72 1022.28 1021.83 1021.38 1020.93 1020.51 1020.12 1019.75 1019.40 1019.07 1018.74 1018.42 1018.08 1017.73 1017.36 1016.99 1016.62 1016.26 1015.90 1015.57 1015.25 1014.95 1014.68 1014.45 1014.24 1014.09 1014.00 1013.98 1014.04 1014.18 1014.41 1014.71 1015.05 1015.43 1015.82 1016.20 1016.56 1016.89 1017.22 1017.55
1023.88 1023.49 1023.05 1022.58 1022.08 1021.58 1021.07 1020.60 1020.15 1019.74 1019.37 1019.04 1018.73 1018.43 1018.14 1017.83 1017.52 1017.18 1016.83 1016.47 1016.10 1015.72 1015.35 1014.98 1014.61 1014.27 1013.95 1013.67 1013.45 1013.30 1013.23 1013.26 1013.40 1013.63 1013.95 1014.33 1014.74 1015.15 1015.56 1015.93 1016.26 1016.57 1016.87
Thickness
5633 5634 5635 5636 5638 5640 5641 5642 5643 5643 5643 5644 5644 5645 5647 5648 5649 5650 5651 5652 5653 5654 5654 5655 5655 5655 5655 5654 5654 5653 5652 5652 5651 5651 5650 5649 5648 5648 5647 5645 5644 5643 5642
5626 5626 5627 5628 5630 5632 5634 5635 5635 5636 5636 5636 5637 5637 5639 5640 5641 5642 5644 5645 5646 5646 5647 5648 5648 5649 5648 5648 5648 5647 5646 5645 5645 5644 5643 5642 5642 5641 5640 5639 5638 5637 5636
5619 5619 5620 5621 5622 5624 5626 5626 5627 5627 5627 5628 5628 5629 5630 5631 5633 5634 5636 5637 5638 5639 5640 5640 5641 5641 5641 5641 5641 5640 5639 5639 5638 5637 5636 5635 5634 5634 5633 5632 5631 5630 5629
5611 5611 5612 5613 5614 5616 5618 5618 5618 5618 5618 5619 5619 5619 5621 5622 5624 5625 5627 5628 5629 5631 5631 5632 5633 5633 5634 5634 5633 5633 5632 5631 5631 5630 5629 5628 5627 5626 5625 5625 5624 5623 5622
5603 5604 5604 5605 5606 5608 5609 5610 5610 5610 5609 5609 5609 5610 5612 5613 5615 5616 5618 5619 5621 5622 5623 5624 5624 5625 5625 5625 5625 5625 5624 5624 5623 5622 5621 5620 5619 5619 5618 5617 5617 5616 5615
5595 5596 5596 5597 5598 5599 5599 5600 5601 5601 5601 5600 5600 5601 5602 5604 5606 5607 5608 5610 5612 5613 5613 5614 5615 5616 5616 5616 5616 5616 5616 5616 5614 5613 5613 5612 5611 5611 5610 5609 5609 5608 5608
5588 5589 5589 5589 5589 5590 5591 5591 5592 5592 5591 5591 5591 5591 5592 5594 5596 5598 5600 5601 5602 5603 5604 5604 5605 5606 5606 5607 5607 5607 5608 5607 5606 5605 5605 5604 5603 5603 5602 5601 5601 5600 5600
5580 5581 5580 5581 5581 5582 5582 5582 5583 5582 5582 5582 5583 5583 5583 5584 5586 5588 5590 5591 5592 5593 5594 5594 5595 5596 5596 5597 5598 5598 5598 5599 5598 5598 5597 5596 5596 5595 5594 5593 5593 5592 5591
5572 5572 5572 5572 5573 5573 5573 5574 5574 5575 5573 5573 5574 5575 5576 5576 5575 5577 5579 5580 5581 5583 5583 5584 5585 5585 5586 5587 5588 5589 5589 5589 5589 5589 5589 5588 5588 5587 5586 5585 5584 5584 5583
5563 5563 5563 5563 5563 5564 5565 5566 5566 5567 5567 5565 5564 5565 5567 5568 5567 5567 5568 5569 5571 5572 5573 5574 5574 5575 5575 5576 5577 5578 5579 5579 5579 5580 5580 5579 5579 5579 5578 5577 5576 5575 5575
5554 5554 5555 5555 5555 5555 5556 5557 5557 5558 5559 5558 5557 5556 5556 5556 5558 5558 5557 5558 5559 5561 5562 5563 5563 5564 5565 5566 5566 5567 5567 5568 5569 5569 5570 5570 5570 5570 5569 5568 5567 5566 5566
5544 5545 5545 5545 5546 5546 5547 5548 5548 5549 5549 5549 5549 5549 5549 5550 5549 5549 5548 5547 5548 5550 5551 5553 5553 5554 5554 5555 5556 5556 5557 5557 5557 5558 5559 5560 5560 5559 5559 5558 5558 5557 5556
5536 5536 5536 5536 5536 5537 5538 5538 5539 5540 5540 5540 5540 5541 5542 5543 5543 5543 5541 5539 5538 5539 5540 5542 5543 5544 5544 5545 5545 5545 5546 5546 5546 5547 5548 5549 5549 5549 5549 5548 5547 5547 5547
5527 5527 5527 5528 5528 5528 5529 5529 5530 5530 5530 5531 5531 5532 5533 5534 5534 5534 5533 5531 5530 5529 5529 5532 5533 5534 5535 5535 5535 5535 5535 5535 5535 5536 5537 5538 5538 5538 5538 5537 5537 5536 5536
5518 5518 5519 5519 5519 5520 5520 5520 5520 5520 5520 5521 5522 5522 5523 5524 5524 5525 5524 5524 5523 5522 5523 5522 5522 5524 5524 5524 5524 5524 5524 5524 5524 5525 5526 5526 5526 5526 5526 5526 5526 5525 5525
5509 5509 5509 5509 5510 5510 5510 5510 5510 5510 5510 5512 5513 5513 5514 5513 5514 5514 5514 5513 5513 5513 5513 5513 5512 5512 5513 5513 5513 5512 5512 5512 5513 5513 5514 5515 5515 5515 5515 5515 5515 5514 5514
5499 5499 5500 5499 5499 5499 5500 5500 5501 5501 5501 5502 5502 5503 5504 5503 5503 5503 5503 5502 5502 5501 5501 5501 5500 5499 5500 5501 5500 5500 5500 5500 5501 5501 5502 5503 5504 5504 5504 5504 5504 5504 5503
5489 5489 5490 5490 5489 5489 5489 5490 5490 5491 5491 5492 5493 5493 5493 5493 5493 5492 5492 5491 5490 5489 5488 5488 5487 5486 5487 5487 5487 5487 5487 5487 5488 5489 5490 5491 5492 5493 5493 5493 5493 5493 5493
5478 5479 5479 5479 5479 5479 5479 5480 5481 5482 5482 5482 5483 5483 5483 5482 5483 5482 5481 5480 5479 5478 5477 5476 5475 5474 5474 5474 5474 5474 5474 5474 5475 5476 5477 5478 5479 5480 5481 5481 5482 5482 5481
5468 5468 5468 5468 5469 5469 5469 5470 5471 5472 5472 5472 5473 5473 5473 5473 5473 5472 5471 5470 5468 5467 5465 5464 5463 5462 5461 5461 5460 5460 5461 5462 5462 5463 5464 5464 5465 5466 5468 5469 5470 5470 5470
5457 5457 5458 5458 5459 5459 5460 5460 5461 5462 5462 5462 5462 5463 5463 5463 5463 5462 5461 5460 5458 5456 5454 5453 5452 5451 5450 5449 5449 5448 5448 5448 5449 5450 5450 5451 5452 5454 5454 5455 5457 5458 5458
5445 5446 5447 5447 5448 5450 5451 5451 5451 5452 5453 5453 5452 5452 5453 5452 5452 5452 5451 5450 5448 5446 5445 5443 5442 5441 5441 5439 5438 5437 5436 5435 5436 5438 5437 5438 5439 5440 5441 5442 5443 5444 5445
5433 5434 5436 5437 5437 5438 5440 5440 5441 5441 5441 5442 5442 5442 5442 5442 5441 5440 5439 5438 5437 5437 5436 5434 5433 5433 5432 5431 5428 5426 5425 5425 5427 5427 5425 5427 5426 5427 5428 5429 5430 5431 5432
5421 5423 5424 5425 5427 5428 5429 5430 5430 5430 5430 5430 5430 5431 5430 5430 5430 5429 5428 5427 5425 5425 5424 5424 5424 5424 5422 5420 5418 5418 5416 5414 5414 5414 5414 5414 5415 5415 5416 5417 5417 5418 5418
5410 5412 5413 5414 5415 5416 5417 5418 5418 5418 5419 5419 5419 5419 5419 5419 5419 5418 5417 5416 5414 5413 5412 5412 5412 5412 5411 5410 5408 5405 5404 5403 5403 5403 5401 5401 5402 5402 5403 5404 5404 5404 5405
5399 5400 5401 5402 5403 5404 5405 5406 5406 5407 5407 5408 5408 5408 5408 5409 5409 5407 5406 5404 5403 5402 5401 5401 5400 5400 5399 5397 5396 5395 5394 5392 5391 5390 5390 5388 5388 5386 5388 5391 5391 5391 5391